Time,TemperatureF,DewpointF,PressureIn,WindDirection,WindDirectionDegrees,WindSpeedMPH,WindSpeedGustMPH,Humidity,HourlyPrecipIn,Conditions,Clouds,dailyrainin,SoftwareType,DateUTC
2013-04-23 00:03:00,54.0,-99.9,30.24,North,-999,-999.0,-999.0,-999,-99.99,,,-99.99,,2013-04-23 04:03:00,
2013-04-23 00:13:00,54.0,-99.9,30.24,North,-999,-999.0,-999.0,-999,-99.99,,,-99.99,,2013-04-23 04:13:00,
2013-04-23 00:23:00,54.0,-99.9,30.24,North,-999,-999.0,-999.0,-999,-99.99,,,-99.99,,2013-04-23 04:23:00,
2013-04-23 00:33:00,54.0,-99.9,30.24,North,-999,-999.0,-999.0,-999,-99.99,,,-99.99,,2013-04-23 04:33:00,
2013-04-23 00:44:00,54.0,-99.9,30.24,North,-999,-999.0,-999.0,-999,-99.99,,,-99.99,,2013-04-23 04:44:00,
2013-04-23 00:53:00,54.0,-99.9,30.24,North,-999,-999.0,-999.0,-999,-99.99,,,-99.99,,2013-04-23 04:53:00,
2013-04-23 01:02:00,53.0,-99.9,30.24,North,-999,-999.0,-999.0,-999,-99.99,,,-99.99,,2013-04-23 05:02:00,
2013-04-23 01:12:00,53.0,-99.9,30.24,North,-999,-999.0,-999.0,-999,-99.99,,,-99.99,,2013-04-23 05:12:00,
2013-04-23 01:22:00,52.0,-99.9,30.24,North,-999,-999.0,-999.0,-999,-99.99,,,-99.99,,2013-04-23 05:22:00,
2013-04-23 01:33:00,52.0,-99.9,30.24,North,-999,-999.0,-999.0,-999,-99.99,,,-99.99,,2013-04-23 05:33:00,
2013-04-23 01:43:00,52.0,-99.9,30.24,North,-999,-999.0,-999.0,-999,-99.99,,,-99.99,,2013-04-23 05:43:00,
2013-04-23 01:52:00,52.0,-99.9,30.24,North,-999,-999.0,-999.0,-999,-99.99,,,-99.99,,2013-04-23 05:52:00,
2013-04-23 02:02:00,51.0,-99.9,30.23,North,-999,-999.0,-999.0,-999,-99.99,,,-99.99,,2013-04-23 06:02:00,
2013-04-23 02:12:00,51.0,-99.9,30.23,North,-999,-999.0,-999.0,-999,-99.99,,,-99.99,,2013-04-23 06:12:00,
2013-04-23 02:22:00,51.0,-99.9,30.23,North,-999,-999.0,-999.0,-999,-99.99,,,-99.99,,2013-04-23 06:22:00,
2013-04-23 02:33:00,51.0,-99.9,30.23,North,-999,-999.0,-999.0,-999,-99.99,,,-99.99,,2013-04-23 06:33:00,
2013-04-23 02:42:00,51.0,-99.9,30.23,North,-999,-999.0,-999.0,-999,-99.99,,,-99.99,,2013-04-23 06:42:00,
2013-04-23 02:52:00,51.0,-99.9,30.23,North,-999,-999.0,-999.0,-999,-99.99,,,-99.99,,2013-04-23 06:52:00,
2013-04-23 03:02:00,50.0,-99.9,30.22,North,-999,-999.0,-999.0,-999,-99.99,,,-99.99,,2013-04-23 07:02:00,
2013-04-23 03:11:00,50.0,-99.9,30.22,North,-999,-999.0,-999.0,-999,-99.99,,,-99.99,,2013-04-23 07:11:00,
2013-04-23 03:22:00,49.0,-99.9,30.21,North,-999,-999.0,-999.0,-999,-99.99,,,-99.99,,2013-04-23 07:22:00,
2013-04-23 03:32:00,49.0,-99.9,30.21,North,-999,-999.0,-999.0,-999,-99.99,,,-99.99,,2013-04-23 07:32:00,
2013-04-23 03:42:00,49.0,-99.9,30.21,North,-999,-999.0,-999.0,-999,-99.99,,,-99.99,,2013-04-23 07:42:00,
2013-04-23 03:52:00,49.0,-99.9,30.21,North,-999,-999.0,-999.0,-999,-99.99,,,-99.99,,2013-04-23 07:52:00,
2013-04-23 04:00:00,48.0,-99.9,30.21,North,-999,-999.0,-999.0,-999,-99.99,,,-99.99,,2013-04-23 08:00:00,
2013-04-23 04:02:00,49.0,-99.9,30.21,North,-999,-999.0,-999.0,-999,-99.99,,,-99.99,,2013-04-23 08:02:00,
2013-04-23 04:11:00,49.0,-99.9,30.21,North,-999,-999.0,-999.0,-999,-99.99,,,-99.99,,2013-04-23 08:11:00,
2013-04-23 04:22:00,48.0,-99.9,30.21,North,-999,-999.0,-999.0,-999,-99.99,,,-99.99,,2013-04-23 08:22:00,
2013-04-23 04:32:00,48.0,-99.9,30.21,North,-999,-999.0,-999.0,-999,-99.99,,,-99.99,,2013-04-23 08:32:00,
2013-04-23 04:42:00,48.0,-99.9,30.21,North,-999,-999.0,-999.0,-999,-99.99,,,-99.99,,2013-04-23 08:42:00,
2013-04-23 04:52:00,48.0,-99.9,30.21,North,-999,-999.0,-999.0,-999,-99.99,,,-99.99,,2013-04-23 08:52:00,
2013-04-23 05:11:00,47.0,-99.9,30.20,North,-999,-999.0,-999.0,-999,-99.99,,,-99.99,,2013-04-23 09:11:00,
2013-04-23 05:22:00,47.0,-99.9,30.20,North,-999,-999.0,-999.0,-999,-99.99,,,-99.99,,2013-04-23 09:22:00,
2013-04-23 05:33:00,47.0,-99.9,30.20,North,-999,-999.0,-999.0,-999,-99.99,,,-99.99,,2013-04-23 09:33:00,
2013-04-23 05:43:00,47.0,-99.9,30.20,North,-999,-999.0,-999.0,-999,-99.99,,,-99.99,,2013-04-23 09:43:00,
2013-04-23 05:53:00,46.0,-99.9,30.19,North,-999,-999.0,-999.0,-999,-99.99,,,-99.99,,2013-04-23 09:53:00,
2013-04-23 06:03:00,46.0,-99.9,30.19,North,-999,-999.0,-999.0,-999,-99.99,,,-99.99,,2013-04-23 10:03:00,
2013-04-23 06:13:00,46.0,-99.9,30.19,North,-999,-999.0,-999.0,-999,-99.99,,,-99.99,,2013-04-23 10:13:00,
2013-04-23 06:23:00,45.0,-99.9,30.19,North,-999,-999.0,-999.0,-999,-99.99,,,-99.99,,2013-04-23 10:23:00,
2013-04-23 06:33:00,45.0,-99.9,30.19,North,-999,-999.0,-999.0,-999,-99.99,,,-99.99,,2013-04-23 10:33:00,
2013-04-23 06:43:00,45.0,-99.9,30.19,North,-999,-999.0,-999.0,-999,-99.99,,,-99.99,,2013-04-23 10:43:00,
2013-04-23 06:53:00,45.0,-99.9,30.19,North,-999,-999.0,-999.0,-999,-99.99,,,-99.99,,2013-04-23 10:53:00,
2013-04-23 07:00:00,44.0,-99.9,30.18,North,-999,-999.0,-999.0,-999,-99.99,,,-99.99,,2013-04-23 11:00:00,
2013-04-23 07:03:00,45.0,-99.9,30.18,North,-999,-999.0,-999.0,-999,-99.99,,,-99.99,,2013-04-23 11:03:00,
2013-04-23 07:12:00,45.0,-99.9,30.18,North,-999,-999.0,-999.0,-999,-99.99,,,-99.99,,2013-04-23 11:12:00,
2013-04-23 07:22:00,44.0,-99.9,30.18,North,-999,-999.0,-999.0,-999,-99.99,,,-99.99,,2013-04-23 11:22:00,
2013-04-23 07:33:00,44.0,-99.9,30.18,North,-999,-999.0,-999.0,-999,-99.99,,,-99.99,,2013-04-23 11:33:00,
2013-04-23 07:43:00,44.0,-99.9,30.18,North,-999,-999.0,-999.0,-999,-99.99,,,-99.99,,2013-04-23 11:43:00,
2013-04-23 07:53:00,44.0,-99.9,30.18,North,-999,-999.0,-999.0,-999,-99.99,,,-99.99,,2013-04-23 11:53:00,
2013-04-23 08:00:00,45.0,-99.9,30.15,North,-999,-999.0,-999.0,-999,-99.99,,,-99.99,,2013-04-23 12:00:00,
2013-04-23 08:13:00,45.0,-99.9,30.16,North,-999,-999.0,-999.0,-999,-99.99,,,-99.99,,2013-04-23 12:13:00,
2013-04-23 08:22:00,45.0,-99.9,30.15,North,-999,-999.0,-999.0,-999,-99.99,,,-99.99,,2013-04-23 12:22:00,
2013-04-23 08:32:00,45.0,-99.9,30.15,North,-999,-999.0,-999.0,-999,-99.99,,,-99.99,,2013-04-23 12:32:00,
2013-04-23 08:42:00,45.0,-99.9,30.15,North,-999,-999.0,-999.0,-999,-99.99,,,-99.99,,2013-04-23 12:42:00,
2013-04-23 08:52:00,45.0,-99.9,30.15,North,-999,-999.0,-999.0,-999,-99.99,,,-99.99,,2013-04-23 12:52:00,
2013-04-23 09:12:00,47.0,-99.9,30.16,North,-999,-999.0,-999.0,-999,-99.99,,,-99.99,,2013-04-23 13:12:00,
2013-04-23 09:22:00,48.0,-99.9,30.16,North,-999,-999.0,-999.0,-999,-99.99,,,-99.99,,2013-04-23 13:22:00,
2013-04-23 09:32:00,48.0,-99.9,30.16,North,-999,-999.0,-999.0,-999,-99.99,,,-99.99,,2013-04-23 13:32:00,
2013-04-23 09:42:00,48.0,-99.9,30.16,North,-999,-999.0,-999.0,-999,-99.99,,,-99.99,,2013-04-23 13:42:00,
2013-04-23 09:52:00,48.0,-99.9,30.16,North,-999,-999.0,-999.0,-999,-99.99,,,-99.99,,2013-04-23 13:52:00,
2013-04-23 10:00:00,52.0,-99.9,30.14,North,-999,-999.0,-999.0,-999,-99.99,,,-99.99,,2013-04-23 14:00:00,
2013-04-23 10:02:00,51.0,-99.9,30.15,North,-999,-999.0,-999.0,-999,-99.99,,,-99.99,,2013-04-23 14:02:00,
2013-04-23 10:11:00,51.0,-99.9,30.15,North,-999,-999.0,-999.0,-999,-99.99,,,-99.99,,2013-04-23 14:11:00,
2013-04-23 10:22:00,52.0,-99.9,30.14,North,-999,-999.0,-999.0,-999,-99.99,,,-99.99,,2013-04-23 14:22:00,
2013-04-23 10:32:00,52.0,-99.9,30.14,North,-999,-999.0,-999.0,-999,-99.99,,,-99.99,,2013-04-23 14:32:00,
2013-04-23 10:42:00,52.0,-99.9,30.14,North,-999,-999.0,-999.0,-999,-99.99,,,-99.99,,2013-04-23 14:42:00,
2013-04-23 10:52:00,52.0,-99.9,30.14,North,-999,-999.0,-999.0,-999,-99.99,,,-99.99,,2013-04-23 14:52:00,
2013-04-23 11:00:00,56.0,-99.9,30.17,North,-999,-999.0,-999.0,-999,-99.99,,,-99.99,,2013-04-23 15:00:00,
2013-04-23 11:12:00,54.0,-99.9,30.14,North,-999,-999.0,-999.0,-999,-99.99,,,-99.99,,2013-04-23 15:12:00,
2013-04-23 11:22:00,56.0,-99.9,30.17,North,-999,-999.0,-999.0,-999,-99.99,,,-99.99,,2013-04-23 15:22:00,
2013-04-23 11:32:00,56.0,-99.9,30.17,North,-999,-999.0,-999.0,-999,-99.99,,,-99.99,,2013-04-23 15:32:00,
2013-04-23 11:43:00,56.0,-99.9,30.17,North,-999,-999.0,-999.0,-999,-99.99,,,-99.99,,2013-04-23 15:43:00,
2013-04-23 11:53:00,56.0,-99.9,30.17,North,-999,-999.0,-999.0,-999,-99.99,,,-99.99,,2013-04-23 15:53:00,
2013-04-23 12:00:00,58.0,-99.9,30.14,North,-999,-999.0,-999.0,-999,-99.99,,,-99.99,,2013-04-23 16:00:00,
2013-04-23 12:23:00,58.0,-99.9,30.14,North,-999,-999.0,-999.0,-999,-99.99,,,-99.99,,2013-04-23 16:23:00,
2013-04-23 12:34:00,58.0,-99.9,30.14,North,-999,-999.0,-999.0,-999,-99.99,,,-99.99,,2013-04-23 16:34:00,
2013-04-23 12:43:00,58.0,-99.9,30.14,North,-999,-999.0,-999.0,-999,-99.99,,,-99.99,,2013-04-23 16:43:00,
2013-04-23 12:53:00,58.0,-99.9,30.14,North,-999,-999.0,-999.0,-999,-99.99,,,-99.99,,2013-04-23 16:53:00,
2013-04-23 13:00:00,53.0,-99.9,30.10,North,-999,-999.0,-999.0,-999,-99.99,,,-99.99,,2013-04-23 17:00:00,
2013-04-23 13:22:00,53.0,-99.9,30.10,North,-999,-999.0,-999.0,-999,-99.99,,,-99.99,,2013-04-23 17:22:00,
2013-04-23 13:33:00,53.0,-99.9,30.10,North,-999,-999.0,-999.0,-999,-99.99,,,-99.99,,2013-04-23 17:33:00,
2013-04-23 14:22:00,49.0,-99.9,30.07,North,-999,-999.0,-999.0,-999,-99.99,,,-99.99,,2013-04-23 18:22:00,
2013-04-23 14:42:00,48.0,-99.9,30.06,North,-999,-999.0,-999.0,-999,-99.99,,,-99.99,,2013-04-23 18:42:00,
2013-04-23 14:52:00,48.0,-99.9,30.06,North,-999,-999.0,-999.0,-999,-99.99,,,-99.99,,2013-04-23 18:52:00,
2013-04-23 15:22:00,48.0,-99.9,30.03,North,-999,-999.0,-999.0,-999,-99.99,,,-99.99,,2013-04-23 19:22:00,
2013-04-23 15:33:00,48.0,-99.9,30.03,North,-999,-999.0,-999.0,-999,-99.99,,,-99.99,,2013-04-23 19:33:00,
2013-04-23 16:22:00,48.0,-99.9,30.00,North,-999,-999.0,-999.0,-999,-99.99,,,-99.99,,2013-04-23 20:22:00,
2013-04-23 16:32:00,48.0,-99.9,30.00,North,-999,-999.0,-999.0,-999,-99.99,,,-99.99,,2013-04-23 20:32:00,
2013-04-23 17:22:00,48.0,-99.9,29.98,North,-999,-999.0,-999.0,-999,-99.99,,,-99.99,,2013-04-23 21:22:00,
2013-04-23 17:33:00,50.0,-99.9,29.97,North,-999,-999.0,-999.0,-999,-99.99,,,-99.99,,2013-04-23 21:33:00,
2013-04-23 17:43:00,50.0,-99.9,29.98,North,-999,-999.0,-999.0,-999,-99.99,,,-99.99,,2013-04-23 21:43:00,
2013-04-23 17:53:00,50.0,-99.9,29.98,North,-999,-999.0,-999.0,-999,-99.99,,,-99.99,,2013-04-23 21:53:00,
2013-04-23 18:01:00,70.0,-99.9,29.96,North,-999,-999.0,-999.0,-999,-99.99,,,-99.99,,2013-04-23 22:01:00,
2013-04-23 18:23:00,70.0,-99.9,29.96,North,-999,-999.0,-999.0,-999,-99.99,,,-99.99,,2013-04-23 22:23:00,
2013-04-23 18:33:00,70.0,-99.9,29.96,North,-999,-999.0,-999.0,-999,-99.99,,,-99.99,,2013-04-23 22:33:00,
2013-04-23 18:42:00,70.0,-99.9,29.96,North,-999,-999.0,-999.0,-999,-99.99,,,-99.99,,2013-04-23 22:42:00,
2013-04-23 18:53:00,70.0,-99.9,29.96,North,-999,-999.0,-999.0,-999,-99.99,,,-99.99,,2013-04-23 22:53:00,
2013-04-23 19:02:00,70.0,-99.9,29.95,North,-999,-999.0,-999.0,-999,-99.99,,,-99.99,,2013-04-23 23:02:00,
2013-04-23 19:22:00,70.0,-99.9,29.95,North,-999,-999.0,-999.0,-999,-99.99,,,-99.99,,2013-04-23 23:22:00,
2013-04-23 19:32:00,70.0,-99.9,29.95,North,-999,-999.0,-999.0,-999,-99.99,,,-99.99,,2013-04-23 23:32:00,
2013-04-23 19:42:00,70.0,-99.9,29.95,North,-999,-999.0,-999.0,-999,-99.99,,,-99.99,,2013-04-23 23:42:00,
2013-04-23 19:52:00,70.0,-99.9,29.95,North,-999,-999.0,-999.0,-999,-99.99,,,-99.99,,2013-04-23 23:52:00,
2013-04-23 20:02:00,69.0,-99.9,29.94,North,-999,-999.0,-999.0,-999,-99.99,,,-99.99,,2013-04-24 00:02:00,
2013-04-23 20:22:00,69.0,-99.9,29.94,North,-999,-999.0,-999.0,-999,-99.99,,,-99.99,,2013-04-24 00:22:00,
2013-04-23 20:32:00,69.0,-99.9,29.94,North,-999,-999.0,-999.0,-999,-99.99,,,-99.99,,2013-04-24 00:32:00,
2013-04-23 20:42:00,69.0,-99.9,29.94,North,-999,-999.0,-999.0,-999,-99.99,,,-99.99,,2013-04-24 00:42:00,
2013-04-23 20:52:00,69.0,-99.9,29.94,North,-999,-999.0,-999.0,-999,-99.99,,,-99.99,,2013-04-24 00:52:00,
2013-04-23 21:20:00,66.0,-99.9,29.93,North,-999,-999.0,-999.0,-999,-99.99,,,-99.99,,2013-04-24 01:20:00,
2013-04-23 21:22:00,67.0,-99.9,29.93,North,-999,-999.0,-999.0,-999,-99.99,,,-99.99,,2013-04-24 01:22:00,
2013-04-23 21:32:00,67.0,-99.9,29.93,North,-999,-999.0,-999.0,-999,-99.99,,,-99.99,,2013-04-24 01:32:00,
2013-04-23 21:43:00,67.0,-99.9,29.93,North,-999,-999.0,-999.0,-999,-99.99,,,-99.99,,2013-04-24 01:43:00,
2013-04-23 21:52:00,66.0,-99.9,29.93,North,-999,-999.0,-999.0,-999,-99.99,,,-99.99,,2013-04-24 01:52:00,
2013-04-23 22:02:00,66.0,-99.9,29.93,North,-999,-999.0,-999.0,-999,-99.99,,,-99.99,,2013-04-24 02:02:00,
2013-04-23 22:30:00,66.0,-99.9,29.92,North,-999,-999.0,-999.0,-999,-99.99,,,-99.99,,2013-04-24 02:30:00,
2013-04-23 22:42:00,66.0,-99.9,29.92,North,-999,-999.0,-999.0,-999,-99.99,,,-99.99,,2013-04-24 02:42:00,
2013-04-23 23:13:00,66.0,-99.9,29.91,North,-999,-999.0,-999.0,-999,-99.99,,,-99.99,,2013-04-24 03:13:00,
2013-04-23 23:19:00,66.0,-99.9,29.91,North,-999,-999.0,-999.0,-999,-99.99,,,-99.99,,2013-04-24 03:19:00,
2013-04-23 23:33:00,66.0,-99.9,29.89,North,-999,-999.0,-999.0,-999,-99.99,,,-99.99,,2013-04-24 03:33:00,
2013-04-23 23:55:00,66.0,-99.9,29.89,North,-999,-999.0,-999.0,-999,-99.99,,,-99.99,,2013-04-24 03:55:00,